DateTimeUTC,F1_A11,F1_S11,BsB_S11,BsG_S11,BsR_S11,BbsB_S11,BbsG_S11,BbsR_S11,BaB_A11,BaG_A11,BaR_A11,Tu_S11,T_S11,Uu_S11,U_S11,P_S11,T1_A11
2021-07-12T12:00:00Z,00000200,20000000,,,,,,,-000.03,-000.09,0000.08,20.0,25.7,09.2,06.5,0673.3,31.1
2021-07-12T12:01:00Z,00000200,20000000,,,,,,,-000.28,-000.20,-000.30,20.0,25.8,09.2,06.5,0673.3,31.1
2021-07-12T12:02:00Z,00000200,20000000,,,,,,,0000.35,-000.07,0000.18,20.0,25.8,09.2,06.5,0673.3,31.1
2021-07-12T12:03:00Z,00000200,60000000,,,,,,,-000.09,-000.11,-000.01,20.0,25.8,09.2,06.5,0673.3,31.1
2021-07-12T12:04:00Z,00000200,40000000,0000.83,0000.87,0000.63,0000.71,0000.34,0000.09,0000.04,0000.24,0000.03,20.1,25.7,09.2,06.6,0674.2,31.1
2021-07-12T12:05:00Z,00000200,00000000,0000.99,0000.86,0000.38,0000.07,0000.45,0000.13,0000.33,0000.36,0000.17,20.2,25.7,09.1,06.5,0674.3,31.1
2021-07-12T12:06:00Z,00000200,00000000,0000.92,0000.92,-000.10,-000.00,0000.24,0000.08,-000.00,-000.08,0000.06,20.2,25.7,09.3,06.7,0674.3,31.1
2021-07-12T12:07:00Z,00000200,00000000,0001.29,0000.63,0000.42,0000.41,0000.35,0000.38,0000.21,0000.45,0000.08,20.2,25.7,09.1,06.5,0674.3,31.1
2021-07-12T12:08:00Z,00000200,00000000,0001.17,0000.77,0000.39,0000.25,0000.32,0000.30,-000.01,-000.30,0000.31,20.2,25.7,09.3,06.6,0674.3,31.1
2021-07-12T12:09:00Z,00000200,00000000,0000.97,0000.59,0000.51,-000.12,0000.24,0000.26,0000.52,0000.46,0000.22,20.2,25.7,09.2,06.6,0674.3,31.1
2021-07-12T12:10:00Z,00000200,00000000,0000.71,0001.06,0000.57,0000.18,0000.04,0000.20,-000.74,-000.46,-000.37,20.2,25.7,09.2,06.6,0674.3,31.1
2021-07-12T12:11:00Z,00000200,00000000,0001.27,0000.99,0000.53,0000.11,-000.00,0000.17,0000.40,0000.20,0000.13,20.3,25.7,09.1,06.5,0674.3,31.1
2021-07-12T12:12:00Z,00000200,00000000,0001.12,0000.75,0000.19,0000.41,0000.25,0000.33,0000.25,0000.36,0000.11,20.3,25.8,09.2,06.6,0674.3,31.1
2021-07-12T12:13:00Z,00000200,00000000,0001.05,0000.48,0000.30,0000.01,-000.03,0000.63,-000.07,0000.21,0000.34,20.3,25.8,09.2,06.6,0674.3,31.1
2021-07-12T12:14:00Z,00000200,00000000,0001.37,0000.71,0000.51,0000.34,0000.53,0000.59,0000.02,-000.24,-000.20,20.3,25.8,09.2,06.6,0674.3,31.1
2021-07-12T12:15:00Z,00000200,00000000,0001.13,0000.90,0000.44,0000.40,0000.33,0000.33,0000.26,0000.11,0000.26,20.3,25.8,09.2,06.6,0674.3,31.1
2021-07-12T12:16:00Z,00000200,00000000,0001.12,0000.99,0000.33,0000.52,-000.16,-000.05,0000.17,-000.07,0000.04,20.4,25.8,09.2,06.6,0674.3,31.1
2021-07-12T12:17:00Z,00000200,00000000,0000.75,0000.69,0000.41,0000.66,0000.19,0000.48,-000.08,0000.07,0000.15,20.4,25.8,09.1,06.5,0674.3,31.1
2021-07-12T12:18:00Z,00000200,00000000,0001.05,0000.73,0000.45,0000.19,0000.32,0000.41,0000.04,0000.03,-000.33,20.4,25.9,09.0,06.5,0674.3,31.1
2021-07-12T12:19:00Z,00000200,00000000,0001.10,0000.57,0000.52,0000.62,0000.04,0000.31,-000.04,0000.55,0000.33,20.4,25.9,09.0,06.5,0674.3,31.1
2021-07-12T12:20:00Z,00000200,00000000,0001.32,0000.55,0000.57,0001.03,0000.26,0000.50,0000.51,-000.29,-000.00,20.4,25.9,09.0,06.5,0674.3,31.1
2021-07-12T12:21:00Z,00000200,00000000,0001.84,0000.82,0000.46,0000.38,0000.47,0000.24,-000.05,0000.11,0000.03,20.5,25.9,09.0,06.5,0674.3,31.1
2021-07-12T12:22:00Z,00000200,00000000,0000.95,0000.97,0000.22,0000.85,0000.41,0000.49,0000.22,-000.18,-000.04,20.5,25.9,09.1,06.5,0674.3,31.1
2021-07-12T12:23:00Z,00000200,00000000,0001.32,0000.68,0000.52,0000.18,0000.41,0000.24,-000.21,0000.87,0000.13,20.5,26.0,09.1,06.5,0674.3,31.1
2021-07-12T12:24:00Z,00000200,00000000,0001.33,0000.73,0000.72,0000.37,0000.19,0000.65,0000.19,-000.52,0000.42,20.5,26.0,09.0,06.5,0674.3,31.1
2021-07-12T12:25:00Z,00000200,00000000,0001.59,0000.86,0000.17,-000.37,0000.10,0000.07,-000.02,0000.34,-000.41,20.5,26.0,09.0,06.5,0674.3,31.1
2021-07-12T12:26:00Z,00000200,00000000,0001.51,0000.59,0000.28,0000.42,0000.48,0000.21,0000.08,0000.08,0000.27,20.5,26.0,09.0,06.5,0674.3,31.1
2021-07-12T12:27:00Z,00000200,00000000,0000.19,0000.42,0000.52,0000.07,0000.21,0000.56,0000.36,-000.03,0000.21,20.6,26.0,08.9,06.4,0674.3,31.2
2021-07-12T12:28:00Z,00000200,00000000,0001.56,0000.73,0000.22,0000.42,0000.56,0000.26,-000.26,0000.27,-000.16,20.6,26.0,09.0,06.5,0674.3,31.1
2021-07-12T12:29:00Z,00000200,00000000,0001.33,0000.99,0000.31,0000.40,0000.26,0000.20,0000.00,-000.15,0000.23,20.6,26.1,08.9,06.4,0674.3,31.2
2021-07-12T12:30:00Z,00000200,00000000,0001.59,0000.61,0000.73,0000.16,0000.33,0000.33,-000.01,-000.24,-000.52,20.6,26.1,08.8,06.4,0674.3,31.2
2021-07-12T12:31:00Z,00000200,00000000,0001.45,0000.87,0000.19,0000.20,0000.08,0000.30,0000.01,0000.50,0000.44,20.6,26.1,08.8,06.4,0674.3,31.2
2021-07-12T12:32:00Z,00000200,00000000,0001.32,0000.42,0000.31,0000.35,0000.36,0000.34,0000.62,-000.25,0000.29,20.7,26.1,08.8,06.4,0674.3,31.2
2021-07-12T12:33:00Z,00000200,00000000,0000.78,0001.12,0000.19,0000.52,0000.27,0000.18,-000.42,0000.02,-000.25,20.7,26.1,08.9,06.4,0674.3,31.2
2021-07-12T12:34:00Z,00000200,00000000,0001.35,0000.91,0000.04,0000.28,-000.03,0000.06,0000.17,0000.13,0000.24,20.7,26.1,08.8,06.4,0674.3,31.2
2021-07-12T12:35:00Z,00000200,00000000,0001.29,0000.66,0000.34,0000.59,0000.08,0000.46,0000.29,0000.25,-000.09,20.7,26.1,08.8,06.3,0674.3,31.2
2021-07-12T12:36:00Z,00000200,00000000,0001.87,0000.43,0000.66,-000.05,0000.42,0000.33,0000.16,0000.01,0000.09,20.7,26.2,08.8,06.3,0674.3,31.1
2021-07-12T12:37:00Z,00000200,00000000,0001.32,0000.85,0000.24,0000.06,0000.24,0000.12,-000.03,0000.03,0000.33,20.7,26.2,08.8,06.3,0674.3,31.1
2021-07-12T12:38:00Z,00000200,00000000,0001.12,0000.75,0000.46,0000.03,0000.20,0000.55,0000.14,0000.28,-000.01,20.7,26.2,08.7,06.3,0674.3,31.1
2021-07-12T12:39:00Z,00000200,00000000,0000.92,0000.58,0000.51,0000.55,0000.25,-000.03,0000.20,-000.29,0000.07,20.8,26.2,08.8,06.3,0674.3,31.1
2021-07-12T12:40:00Z,00000200,00000000,0001.23,0000.69,0000.57,0000.08,0000.18,0000.48,0000.15,0000.47,0000.20,20.8,26.2,08.8,06.4,0674.3,31.1
2021-07-12T12:41:00Z,00000200,00000000,0001.29,0000.54,0000.46,0000.22,0000.13,0000.05,-000.07,-000.20,-000.04,20.8,26.2,08.8,06.3,0674.3,31.1
2021-07-12T12:42:00Z,00000200,00000000,0001.90,0000.82,0000.36,0000.67,0000.09,0000.26,0000.06,-000.16,0000.04,20.8,26.2,08.8,06.4,0674.3,31.1
2021-07-12T12:43:00Z,00000200,00000000,0000.72,0000.62,0000.31,0000.50,0000.21,0000.27,0000.01,0000.51,-000.02,20.8,26.2,08.8,06.3,0674.3,31.1
2021-07-12T12:44:00Z,00000200,00000000,0001.16,0000.54,0000.45,-000.21,0000.17,0000.17,0000.18,0000.15,0000.26,20.8,26.2,08.7,06.3,0674.3,31.1
2021-07-12T12:45:00Z,00000200,00000000,0000.83,0000.73,0000.34,-000.20,0000.02,0000.05,0000.37,0000.11,-000.01,20.8,26.2,08.8,06.4,0674.3,31.1
2021-07-12T12:46:00Z,00000200,00000000,0000.95,0000.99,0000.49,-000.14,0000.04,0000.26,-000.34,0000.33,-000.02,20.9,26.2,09.0,06.5,0674.3,31.1
2021-07-12T12:47:00Z,00000200,00000000,0001.28,0000.88,0000.23,-000.27,0000.17,0000.47,0000.27,0000.04,0000.29,20.9,26.2,08.9,06.4,0674.3,31.1
2021-07-12T12:48:00Z,00000200,00000000,0000.88,0000.60,0000.43,0000.06,0000.01,0000.55,0000.06,-000.22,0000.11,20.9,26.3,08.9,06.5,0674.3,31.1
2021-07-12T12:49:00Z,00000200,00000000,0000.71,0000.80,0000.39,0000.75,0000.34,0000.42,-000.03,0000.06,-000.04,20.9,26.3,08.9,06.4,0674.3,31.1
2021-07-12T12:50:00Z,00000200,00000000,0000.60,0001.15,0000.17,0000.32,0000.51,0000.15,0000.15,0000.23,-000.02,20.9,26.3,08.7,06.3,0674.3,31.2
2021-07-12T12:51:00Z,00000200,00000000,0000.63,0000.58,0000.76,0000.52,0000.43,0000.41,0000.12,-000.05,-000.11,20.9,26.3,08.6,06.2,0674.3,31.2
2021-07-12T12:52:00Z,00000200,00000000,0001.25,0000.58,0000.41,0000.18,0000.03,0000.63,-000.06,0000.09,0000.33,20.9,26.3,08.8,06.3,0674.3,31.1
2021-07-12T12:53:00Z,00000200,00000000,0001.07,0000.48,0000.35,0000.23,-000.00,0000.24,0000.09,-000.07,0000.04,20.9,26.3,08.8,06.3,0674.3,31.1
2021-07-12T12:54:00Z,00000200,00000000,0000.65,0000.51,0000.45,0000.12,0000.25,0000.61,0000.11,0000.34,-000.06,20.9,26.3,08.7,06.3,0674.3,31.1
2021-07-12T12:55:00Z,00000200,00000000,0001.77,0000.64,0000.30,0000.62,0000.32,0000.22,0000.32,0000.01,0000.02,20.9,26.3,08.6,06.3,0674.3,31.1
2021-07-12T12:56:00Z,00000200,00000000,0000.49,0000.72,0000.35,0000.16,0000.38,0000.29,0000.22,0000.11,0000.29,21.0,26.3,08.8,06.4,0674.3,31.1
2021-07-12T12:57:00Z,00000200,40000000,,,,,,,-000.17,-000.15,-000.14,21.0,26.3,08.9,06.5,0674.2,31.1
2021-07-12T12:58:00Z,00000200,60000000,,,,,,,0000.11,0000.19,0000.29,20.9,26.4,08.8,06.3,0673.3,31.1
2021-07-12T12:59:00Z,00000200,20000000,,,,,,,-000.02,0000.13,-000.19,20.9,26.5,08.8,06.3,0673.3,31.1
